EW0923 Weather Reports


Display with metric or nautical units.
time (UTC)temp
F
wind
direction
speed
MPH
gust
MPH
rain 1hr
in
rain 24hr
in
rain mn
in
humidity
%
barometer
mb
20260508091027 49 329 0.0 3.0 0.00 0.00 0.00 66 1012.1
20260508090526 50 340 0.0 3.0 0.00 0.00 0.00 66 1012.1
20260508085524 50 319 2.0 4.0 0.00 0.00 0.00 65 1012.0
20260508085024 50 326 1.0 6.0 0.00 0.00 0.00 64 1011.9
20260508084536 51 321 1.0 8.0 0.00 0.00 0.00 64 1011.8
20260508084025 51 337 4.0 9.0 0.00 0.00 0.00 63 1011.8
20260508083527 51 333 1.0 9.0 0.00 0.00 0.00 63 1011.8
20260508083045 51 14 2.0 9.0 0.00 0.00 0.00 62 1011.5
20260508082525 51 322 2.0 9.0 0.00 0.00 0.00 62 1011.5
20260508082026 52 323 4.0 10.0 0.00 0.00 0.00 61 1011.2
20260508081542 52 10 3.0 11.0 0.00 0.00 0.00 61 1011.2
20260508081026 52 51 2.0 11.0 0.00 0.00 0.00 61 1011.1
20260508080526 52 336 4.0 12.0 0.00 0.00 0.00 60 1010.9
20260508080041 52 317 3.0 12.0 0.00 0.00 0.00 61 1010.9
20260508075526 53 246 3.0 17.0 0.00 0.00 0.00 61 1010.8
20260508075029 53 9 5.0 17.0 0.00 0.00 0.00 61 1010.6
20260508074545 53 278 4.0 13.0 0.00 0.00 0.00 63 1010.6
20260508074026 52 345 2.0 8.0 0.00 0.00 0.00 66 1010.7
20260508073522 52 328 3.0 8.0 0.00 0.00 0.00 66 1010.5
20260508073044 52 334 1.0 5.0 0.00 0.00 0.00 67 1010.4
20260508072524 53 321 2.0 5.0 0.00 0.00 0.00 67 1010.3
20260508072025 53 324 1.0 5.0 0.00 0.00 0.00 68 1010.1
20260508071544 53 336 2.0 5.0 0.00 0.00 0.00 69 1010.0
20260508071026 52 13 1.0 5.0 0.00 0.00 0.00 71 1009.9
20260508070526 52 306 1.0 5.0 0.00 0.00 0.00 72 1009.9
20260508070050 52 286 1.0 6.0 0.00 0.00 0.00 74 1009.8
20260508065530 52 299 1.0 6.0 0.00 0.09 0.00 75 1009.8
20260508065027 52 285 0.0 2.0 0.00 0.09 0.00 76 1009.7
20260508064544 52 298 1.0 2.0 0.00 0.09 0.00 76 1009.6
20260508064028 52 290 1.0 2.0 0.00 0.09 0.00 76 1009.6
20260508063533 52 272 1.0 3.0 0.00 0.09 0.00 76 1009.4
20260508063044 53 306 1.0 3.0 0.00 0.09 0.00 76 1009.4
20260508062525 53 263 1.0 4.0 0.00 0.09 0.00 76 1009.4
20260508062025 53 273 1.0 4.0 0.00 0.09 0.00 75 1009.3
20260508061545 53 309 1.0 4.0 0.00 0.09 0.00 75 1009.2
20260508061028 53 281 1.0 7.0 0.00 0.09 0.00 75 1009.1
20260508060526 53 275 1.0 7.0 0.00 0.09 0.00 74 1009.1
20260508060043 53 269 1.0 7.0 0.00 0.09 0.00 74 1009.1
20260508055528 53 290 1.0 6.0 0.00 0.12 0.00 74 1009.0
20260508055031 53 286 1.0 6.0 0.00 0.12 0.00 74 1009.0
20260508054544 53 283 1.0 3.0 0.00 0.12 0.00 74 1009.0
20260508054026 53 249 1.0 7.0 0.00 0.12 0.00 74 1009.0
20260508053527 53 297 1.0 7.0 0.00 0.12 0.00 74 1009.0
20260508053045 53 272 1.0 5.0 0.00 0.12 0.00 73 1008.9
20260508052525 53 270 1.0 5.0 0.00 0.12 0.00 73 1009.0
20260508052026 53 274 1.0 3.0 0.00 0.12 0.00 73 1009.0
20260508051536 53 277 1.0 3.0 0.00 0.12 0.00 73 1009.0
20260508051026 53 263 1.0 4.0 0.00 0.12 0.00 73 1009.0
20260508050526 53 286 1.0 4.0 0.00 0.12 0.00 73 1009.0
20260508050043 53 294 0.0 2.0 0.00 0.12 0.00 73 1009.1
20260508045526 53 290 0.0 3.0 0.00 0.12 0.00 73 1009.0
20260508045025 53 279 1.0 8.0 0.00 0.12 0.00 73 1009.1
20260508044554 53 274 2.0 8.0 0.00 0.12 0.00 73 1009.0
20260508044028 53 304 1.0 4.0 0.00 0.12 0.00 73 1009.0
20260508043526 52 317 1.0 4.0 0.00 0.12 0.00 73 1009.1
20260508043045 52 279 1.0 5.0 0.00 0.12 0.00 73 1009.0
20260508042528 52 290 1.0 6.0 0.00 0.12 0.00 73 1009.0
20260508042028 52 274 1.0 6.0 0.00 0.12 0.00 73 1009.0
20260508041553 52 269 1.0 4.0 0.00 0.12 0.00 73 1009.0
20260508041025 52 274 1.0 3.0 0.00 0.12 0.00 73 1009.0
20260508040526 52 282 1.0 3.0 0.00 0.12 0.00 72 1009.0
20260508040051 53 217 1.0 4.0 0.00 0.12 0.00 72 1008.9
20260508035528 53 263 1.0 4.0 0.00 0.12 0.12 72 1008.9
20260508035025 53 283 1.0 4.0 0.00 0.12 0.12 72 1008.8
20260508034545 53 271 1.0 6.0 0.00 0.12 0.12 72 1008.8
20260508034028 53 265 1.0 7.0 0.00 0.12 0.12 72 1008.8
20260508033525 53 360 1.0 7.0 0.00 0.12 0.12 72 1008.8
20260508033039 53 272 1.0 3.0 0.00 0.12 0.12 73 1008.9
20260508032527 53 281 1.0 3.0 0.00 0.12 0.12 73 1008.8
20260508032030 53 277 1.0 7.0 0.00 0.12 0.12 74 1008.9
20260508031556 53 294 1.0 7.0 0.00 0.12 0.12 74 1008.9
20260508031028 53 281 1.0 10.0 0.00 0.12 0.12 74 1008.8
20260508030524 53 296 1.0 10.0 0.00 0.12 0.12 75 1008.9
20260508030059 52 277 2.0 10.0 0.00 0.12 0.12 76 1008.9
20260508025528 52 218 2.0 5.0 0.00 0.12 0.12 76 1008.9
20260508025028 52 252 1.0 4.0 0.00 0.12 0.12 77 1008.9
20260508024543 52 170 1.0 4.0 0.00 0.12 0.12 77 1009.0
20260508024025 52 154 1.0 4.0 0.00 0.12 0.12 77 1008.8
20260508023524 52 211 1.0 4.0 0.00 0.12 0.12 76 1008.9
20260508023045 52 0 1.0 4.0 0.00 0.12 0.12 76 1009.0
20260508022528 52 159 1.0 4.0 0.00 0.12 0.12 76 1008.9
20260508022025 52 233 1.0 2.0 0.00 0.12 0.12 75 1008.9
20260508021546 53 230 0.0 2.0 0.00 0.12 0.12 74 1008.9
20260508021024 53 129 0.0 4.0 0.00 0.12 0.12 73 1008.7
20260508020524 53 0 0.0 4.0 0.00 0.12 0.12 72 1008.7
20260508020044 53 254 1.0 3.0 0.00 0.12 0.12 70 1008.7
20260508015524 54 229 0.0 3.0 0.00 0.12 0.12 67 1008.7
20260508015028 54 205 1.0 5.0 0.00 0.12 0.12 67 1008.7
20260508014545 54 123 0.0 6.0 0.00 0.12 0.12 66 1008.7
20260508014029 54 234 1.0 6.0 0.00 0.12 0.12 65 1008.7
20260508013528 54 173 1.0 7.0 0.00 0.12 0.12 61 1008.6
20260508013043 54 128 3.0 7.0 0.00 0.12 0.12 59 1008.6
20260508012525 54 125 2.0 4.0 0.00 0.12 0.12 56 1008.4
20260508012028 53 113 0.0 2.0 0.00 0.12 0.12 57 1008.4
20260508011540 53 0 0.0 0.0 0.00 0.12 0.12 61 1008.3
20260508011025 53 0 0.0 0.0 0.00 0.12 0.12 58 1008.1
20260508010525 54 0 0.0 0.0 0.00 0.12 0.12 57 1008.0
20260508010041 54 0 0.0 0.0 0.00 0.12 0.12 54 1008.1
20260508005530 54 0 0.0 0.0 0.00 0.12 0.12 54 1008.0
20260508005024 55 0 0.0 0.0 0.00 0.12 0.12 50 1008.1
20260508004542 55 0 0.0 0.0 0.00 0.12 0.12 52 1008.0
20260508004029 55 0 0.0 0.0 0.00 0.12 0.12 51 1007.9
20260508003531 56 0 0.0 0.0 0.00 0.12 0.12 48 1007.9
20260508003058 56 0 0.0 0.0 0.00 0.12 0.12 49 1008.0
20260508002529 57 0 0.0 0.0 0.00 0.12 0.12 49 1007.9
20260508002028 57 0 0.0 0.0 0.00 0.12 0.12 47 1007.9
20260508001543 58 0 0.0 0.0 0.00 0.12 0.12 47 1007.9
20260508001028 58 0 0.0 0.0 0.00 0.12 0.12 44 1007.7
20260508000525 59 0 0.0 0.0 0.00 0.12 0.12 42 1007.5
20260508000042 60 0 0.0 0.0 0.00 0.12 0.12 41 1007.6
20260507235525 60 0 0.0 1.0 0.00 0.12 0.12 41 1007.5
20260507235028 61 0 0.0 1.0 0.00 0.12 0.12 38 1007.6
20260507234546 61 0 0.0 1.0 0.00 0.12 0.12 38 1007.5
20260507234025 62 0 0.0 3.0 0.00 0.12 0.12 37 1007.4
20260507233525 62 0 0.0 3.0 0.00 0.12 0.12 35 1007.4
20260507233036 63 276 0.0 2.0 0.00 0.12 0.12 35 1007.2
20260507232525 63 298 1.0 3.0 0.00 0.12 0.12 34 1007.4
20260507232028 63 300 1.0 3.0 0.00 0.12 0.12 35 1007.3
20260507231552 63 331 0.0 3.0 0.00 0.12 0.12 34 1007.2
20260507231027 63 328 0.0 3.0 0.00 0.12 0.12 34 1007.1
20260507230528 63 342 1.0 2.0 0.00 0.12 0.12 34 1007.1
20260507230044 63 281 1.0 3.0 0.00 0.12 0.12 33 1006.9
20260507225528 64 294 1.0 8.0 0.00 0.12 0.12 32 1006.9
20260507225025 64 302 0.0 8.0 0.00 0.12 0.12 33 1006.9
20260507224555 64 307 1.0 8.0 0.00 0.12 0.12 34 1006.9
20260507224028 64 322 1.0 8.0 0.00 0.12 0.12 33 1006.9
20260507223528 64 330 3.0 8.0 0.00 0.12 0.12 32 1006.8
20260507223049 64 347 1.0 5.0 0.00 0.12 0.12 33 1006.9
20260507222527 64 329 2.0 5.0 0.00 0.12 0.12 31 1007.1
20260507222027 64 321 2.0 4.0 0.00 0.12 0.12 32 1007.0
20260507221545 64 53 2.0 4.0 0.00 0.12 0.12 33 1007.1
20260507221028 64 56 1.0 4.0 0.00 0.12 0.12 33 1007.2
20260507220527 64 323 1.0 5.0 0.00 0.12 0.12 35 1007.3
20260507220045 64 323 2.0 5.0 0.00 0.12 0.12 33 1007.2
20260507215525 64 298 2.0 9.0 0.00 0.12 0.12 33 1007.3
20260507215029 64 333 2.0 9.0 0.00 0.12 0.12 34 1007.4
20260507214546 64 274 3.0 9.0 0.00 0.12 0.12 34 1007.5
20260507214028 64 279 1.0 4.0 0.00 0.12 0.12 34 1007.4
20260507213529 64 302 2.0 4.0 0.00 0.12 0.12 33 1007.5
20260507213048 64 290 1.0 5.0 0.00 0.12 0.12 34 1007.4
20260507212525 64 211 1.0 5.0 0.00 0.12 0.12 33 1007.3
20260507212025 64 42 2.0 9.0 0.00 0.12 0.12 32 1007.3
20260507211537 64 351 1.0 9.0 0.00 0.12 0.12 33 1007.4
20260507211027 65 331 2.0 8.0 0.00 0.12 0.12 33 1007.2
20260507210529 65 90 1.0 9.0 0.00 0.12 0.12 34 1007.3
20260507210112 64 86 2.0 9.0 0.00 0.12 0.12 32 1007.3
20260507205528 65 9 2.0 5.0 0.00 0.12 0.12 33 1007.2
20260507205028 64 298 1.0 7.0 0.00 0.12 0.12 34 1007.3
20260507204542 64 217 2.0 7.0 0.00 0.12 0.12 32 1007.2
20260507204028 65 16 2.0 8.0 0.00 0.12 0.12 33 1007.2
20260507203528 64 21 3.0 8.0 0.00 0.12 0.12 33 1007.1
20260507203044 64 13 3.0 8.0 0.00 0.12 0.12 32 1007.1
20260507202528 64 295 2.0 11.0 0.00 0.12 0.12 33 1007.1
20260507202028 64 272 1.0 11.0 0.00 0.12 0.12 34 1007.1
20260507201542 64 325 3.0 8.0 0.00 0.12 0.12 34 1007.2
20260507201030 64 346 2.0 9.0 0.00 0.12 0.12 33 1007.1
20260507200528 64 267 1.0 12.0 0.00 0.12 0.12 33 1007.2
20260507195528 64 292 2.0 12.0 0.00 0.12 0.12 34 1007.3
20260507195029 63 334 1.0 6.0 0.00 0.12 0.12 33 1007.3
20260507194544 64 284 2.0 6.0 0.00 0.12 0.12 32 1007.4
20260507194027 64 292 2.0 6.0 0.00 0.12 0.12 33 1007.5
20260507193530 63 317 3.0 8.0 0.00 0.12 0.12 34 1007.5
20260507193109 63 336 3.0 8.0 0.00 0.12 0.12 34 1007.5
20260507192527 63 323 3.0 12.0 0.00 0.12 0.12 34 1007.5
20260507192028 63 309 4.0 12.0 0.00 0.12 0.12 33 1007.5
20260507191553 64 13 2.0 9.0 0.00 0.12 0.12 32 1007.7
20260507191028 64 325 4.0 9.0 0.00 0.12 0.12 32 1007.8
20260507190528 64 344 5.0 9.0 0.00 0.12 0.12 33 1007.9
20260507190041 63 329 3.0 13.0 0.00 0.12 0.12 36 1008.1
20260507185528 63 14 5.0 13.0 0.00 0.12 0.12 34 1008.2
20260507185028 63 285 2.0 8.0 0.00 0.12 0.12 36 1008.1
20260507184546 63 298 2.0 9.0 0.00 0.12 0.12 34 1008.0
20260507184030 64 316 2.0 9.0 0.00 0.12 0.12 35 1008.2
20260507183528 64 74 4.0 11.0 0.00 0.12 0.12 33 1008.2
20260507183057 64 290 1.0 12.0 0.00 0.12 0.12 33 1008.1
20260507182525 64 274 6.0 12.0 0.00 0.12 0.12 34 1008.1
20260507182028 65 62 2.0 6.0 0.00 0.12 0.12 37 1008.1
20260507181545 64 246 1.0 6.0 0.00 0.12 0.12 37 1008.1
20260507181028 63 300 2.0 7.0 0.00 0.12 0.12 37 1008.1
20260507180529 63 290 2.0 7.0 0.00 0.12 0.12 38 1008.2
20260507180043 63 230 2.0 9.0 0.00 0.12 0.12 38 1008.2
20260507175559 63 297 3.0 9.0 0.00 0.12 0.12 36 1008.3
20260507175030 64 277 2.0 5.0 0.00 0.12 0.12 38 1008.5
20260507174546 63 308 1.0 10.0 0.00 0.12 0.12 38 1008.3
20260507174030 63 336 3.0 13.0 0.00 0.12 0.12 36 1008.6
20260507173528 63 37 2.0 13.0 0.00 0.12 0.12 38 1008.9
20260507173112 63 330 5.0 13.0 0.00 0.12 0.12 37 1008.9
20260507172525 63 305 2.0 8.0 0.00 0.12 0.12 37 1008.9
20260507172027 62 298 3.0 8.0 0.00 0.12 0.12 42 1009.0
20260507171547 62 333 1.0 6.0 0.00 0.12 0.12 43 1009.1
20260507171027 62 59 2.0 8.0 0.00 0.12 0.12 45 1009.3
20260507170530 61 291 2.0 9.0 0.00 0.12 0.12 44 1009.3
20260507170049 61 16 3.0 9.0 0.00 0.12 0.12 46 1009.6
20260507165528 61 260 1.0 4.0 0.00 0.12 0.12 45 1009.6
20260507165031 60 232 2.0 4.0 0.00 0.12 0.12 48 1009.6
20260507164553 59 170 1.0 3.0 0.00 0.12 0.12 48 1009.6
20260507164031 59 290 1.0 6.0 0.00 0.12 0.12 48 1009.9
20260507163528 58 278 1.0 6.0 0.00 0.12 0.12 52 1009.9
20260507163045 58 271 1.0 7.0 0.00 0.12 0.12 51 1010.1
20260507162528 58 286 3.0 7.0 0.00 0.12 0.12 51 1010.1
20260507162030 58 302 1.0 5.0 0.00 0.12 0.12 53 1010.2
20260507161549 58 187 1.0 6.0 0.00 0.12 0.12 53 1010.3
20260507161029 57 44 2.0 6.0 0.00 0.12 0.12 55 1010.2
20260507160529 57 333 3.0 6.0 0.00 0.12 0.12 53 1010.3
20260507160059 58 82 3.0 6.0 0.00 0.12 0.12 53 1010.3
20260507155531 58 55 2.0 6.0 0.00 0.12 0.12 53 1010.3
20260507155031 58 241 0.0 6.0 0.00 0.12 0.12 54 1010.4
20260507154545 58 344 2.0 6.0 0.00 0.12 0.12 52 1010.4
20260507154032 58 309 1.0 6.0 0.00 0.12 0.12 53 1010.4
20260507153528 58 53 2.0 8.0 0.00 0.12 0.12 54 1010.4
20260507153043 57 122 2.0 12.0 0.00 0.12 0.12 54 1010.4
20260507152528 58 325 3.0 12.0 0.00 0.12 0.12 54 1010.7
20260507152028 58 19 3.0 8.0 0.00 0.12 0.12 54 1010.8
20260507151545 58 53 2.0 8.0 0.00 0.12 0.12 55 1010.9
20260507151029 58 306 2.0 9.0 0.00 0.12 0.12 53 1010.9
20260507150528 58 34 3.0 9.0 0.00 0.12 0.12 52 1011.0
20260507150045 58 267 3.0 8.0 0.00 0.12 0.12 52 1010.9
20260507145529 58 327 2.0 9.0 0.00 0.12 0.12 53 1010.9
20260507145026 58 326 2.0 9.0 0.00 0.12 0.12 51 1010.8
20260507144555 58 65 2.0 7.0 0.00 0.12 0.12 51 1011.0
20260507144031 58 39 3.0 9.0 0.00 0.12 0.12 53 1011.0
20260507143528 57 101 3.0 9.0 0.00 0.12 0.12 57 1011.1
20260507143046 56 321 2.0 9.0 0.00 0.12 0.12 58 1011.1
20260507142528 56 262 3.0 11.0 0.00 0.12 0.12 58 1011.1
20260507142024 56 21 3.0 11.0 0.00 0.12 0.12 62 1011.1
20260507141542 56 318 4.0 10.0 0.00 0.12 0.12 59 1011.2
20260507141028 56 319 1.0 9.0 0.00 0.12 0.12 61 1011.1
20260507140528 55 19 2.0 9.0 0.00 0.12 0.12 65 1011.2
20260507140042 55 331 2.0 5.0 0.00 0.12 0.12 66 1011.3
20260507135528 54 336 2.0 9.0 0.00 0.12 0.12 65 1011.3
20260507135028 54 5 2.0 9.0 0.00 0.12 0.12 67 1011.4
20260507134549 54 47 4.0 9.0 0.00 0.12 0.12 66 1011.2
20260507134029 54 318 1.0 7.0 0.00 0.12 0.12 69 1011.4
20260507133525 54 34 2.0 7.0 0.00 0.12 0.12 69 1011.5
20260507133048 54 53 1.0 10.0 0.00 0.12 0.12 73 1011.3
20260507132527 54 348 4.0 10.0 0.00 0.12 0.12 73 1011.2
20260507132027 54 24 2.0 8.0 0.00 0.12 0.12 73 1011.1
20260507131545 53 331 2.0 8.0 0.00 0.12 0.12 74 1011.2
20260507131027 53 317 2.0 10.0 0.00 0.12 0.12 74 1011.3
20260507130529 53 311 3.0 10.0 0.00 0.12 0.12 75 1011.3
20260507130043 53 333 2.0 8.0 0.00 0.12 0.12 76 1011.4
20260507125528 53 329 3.0 5.0 0.00 0.12 0.12 79 1011.4
20260507125031 53 336 1.0 6.0 0.00 0.12 0.12 82 1011.4
20260507124537 53 9 1.0 6.0 0.00 0.12 0.12 83 1011.4
20260507124028 53 323 1.0 4.0 0.00 0.12 0.12 84 1011.3
20260507123528 52 15 1.0 4.0 0.00 0.12 0.12 84 1011.2
20260507123044 52 340 0.0 2.0 0.00 0.12 0.12 84 1011.3
20260507122529 52 0 0.0 1.0 0.00 0.12 0.12 85 1011.2
20260507122031 52 0 0.0 1.0 0.00 0.12 0.12 85 1011.1
20260507121545 52 272 0.0 1.0 0.00 0.12 0.12 84 1011.2
20260507121025 52 336 0.0 3.0 0.00 0.12 0.12 85 1011.1
20260507120527 52 336 0.0 3.0 0.00 0.12 0.12 84 1011.1
20260507120047 52 333 0.0 2.0 0.00 0.12 0.12 84 1011.0
20260507115527 52 324 0.0 2.0 0.00 0.12 0.12 85 1011.1
20260507115028 51 340 0.0 2.0 0.00 0.12 0.12 85 1011.1
20260507114548 51 350 1.0 2.0 0.00 0.12 0.12 85 1011.0
20260507114031 51 0 0.0 1.0 0.00 0.12 0.12 86 1011.1
20260507113527 51 331 0.0 1.0 0.00 0.12 0.12 85 1010.8
20260507113039 51 311 0.0 1.0 0.00 0.12 0.12 85 1011.0
20260507112528 51 0 0.0 1.0 0.00 0.12 0.12 85 1011.2
20260507112028 51 272 0.0 1.0 0.00 0.12 0.12 85 1011.0
20260507111557 51 0 0.0 1.0 0.00 0.12 0.12 85 1010.8
20260507111025 51 22 0.0 1.0 0.00 0.12 0.12 85 1010.9
20260507110527 51 0 0.0 1.0 0.00 0.12 0.12 85 1010.7
20260507110044 51 331 0.0 1.0 0.00 0.12 0.12 85 1010.5
20260507105530 51 301 0.0 1.0 0.00 0.12 0.12 86 1010.4
20260507105026 51 314 0.0 1.0 0.00 0.12 0.12 87 1010.3
20260507104544 51 288 0.0 1.0 0.00 0.12 0.12 85 1010.1
20260507104026 51 287 0.0 1.0 0.00 0.12 0.12 85 1010.3
20260507103526 51 0 0.0 1.0 0.00 0.12 0.12 84 1010.2
20260507103041 51 0 0.0 1.0 0.00 0.12 0.12 85 1010.0
20260507102526 51 0 0.0 1.0 0.00 0.12 0.12 85 1010.1
20260507102026 51 0 0.0 3.0 0.00 0.12 0.12 83 1010.1
20260507101538 51 314 0.0 4.0 0.00 0.12 0.12 84 1010.0
20260507101027 51 330 1.0 4.0 0.00 0.12 0.12 83 1010.0
20260507100526 51 337 1.0 4.0 0.00 0.12 0.12 83 1010.0
20260507100041 51 15 1.0 4.0 0.00 0.12 0.12 83 1010.0
20260507095526 51 329 2.0 5.0 0.00 0.12 0.12 83 1009.9
20260507095029 51 0 1.0 5.0 0.00 0.12 0.12 83 1009.9
20260507094544 51 325 1.0 5.0 0.00 0.12 0.12 83 1010.2
20260507094029 51 0 2.0 5.0 0.00 0.12 0.12 83 1010.1
20260507093525 51 329 2.0 6.0 0.00 0.12 0.12 82 1010.0
20260507093046 51 317 2.0 6.0 0.00 0.12 0.12 83 1010.0
20260507092526 51 331 2.0 6.0 0.00 0.12 0.12 83 1009.8
20260507092025 51 331 1.0 9.0 0.00 0.12 0.12 83 1009.6
20260507091541 51 317 1.0 9.0 0.00 0.12 0.12 84 1009.7